TFS1043 KBOS-KMDW

Flight info

Callsign TFS1043
Flight time N/A
Altitude 34000
Route HYLND7 HYLND CAM Q822 GONZZ Q29 JHW DJB ASHEN PANGG7
Aircraft A321/M-SDE3FGHIRWY/LB1

Departure

Time 2026-05-03 21:43
Airport Boston Logan International Airport (KBOS)

Arrival

Time N/A
Airport Chicago Midway International Airport (KMDW)
Time Latitude Longitude Altitude Speed Heading
2026-05-03 21:10 42.36556 -71.01604 17 ft 0 kts 19°
2026-05-03 21:30 42.36552 -71.01606 25 ft 3 kts 19°
2026-05-03 21:30 42.36527 -71.01618 28 ft 4 kts 19°
2026-05-03 21:30 42.36507 -71.01628 27 ft 3 kts 19°
2026-05-03 21:30 42.36483 -71.01641 29 ft 4 kts 39°
2026-05-03 21:31 42.36478 -71.01647 27 ft 0 kts 43°
2026-05-03 21:34 42.36477 -71.01631 28 ft 4 kts 94°
2026-05-03 21:35 42.36464 -71.01609 29 ft 3 kts 127°
2026-05-03 21:35 42.36452 -71.01586 27 ft 3 kts 127°
2026-05-03 21:35 42.36428 -71.01541 29 ft 9 kts 124°
2026-05-03 21:35 42.36396 -71.01474 29 ft 8 kts 118°
2026-05-03 21:36 42.36374 -71.01412 27 ft 7 kts 113°
2026-05-03 21:36 42.36351 -71.01347 30 ft 12 kts 122°
2026-05-03 21:36 42.36284 -71.01201 25 ft 20 kts 121°
2026-05-03 21:36 42.36227 -71.01044 28 ft 18 kts 114°
2026-05-03 21:37 42.36178 -71.00899 28 ft 16 kts 115°
2026-05-03 21:37 42.36135 -71.00768 28 ft 14 kts 114°
2026-05-03 21:37 42.36096 -71.00620 28 ft 18 kts 109°
2026-05-03 21:37 42.36056 -71.00466 29 ft 17 kts 109°
2026-05-03 21:38 42.36020 -71.00325 26 ft 15 kts 109°
2026-05-03 21:38 42.35987 -71.00197 28 ft 14 kts 109°
2026-05-03 21:38 42.35951 -71.00047 26 ft 20 kts 100°
2026-05-03 21:38 42.35972 -70.99863 25 ft 19 kts 76°
2026-05-03 21:39 42.36002 -70.99695 25 ft 18 kts 77°
2026-05-03 21:39 42.36028 -70.99539 25 ft 16 kts 77°
2026-05-03 21:39 42.36053 -70.99402 26 ft 14 kts 76°
2026-05-03 21:39 42.36075 -70.99279 25 ft 14 kts 77°
2026-05-03 21:40 42.36099 -70.99146 25 ft 14 kts 76°
2026-05-03 21:40 42.36122 -70.99018 25 ft 14 kts 76°
2026-05-03 21:40 42.36137 -70.98898 25 ft 12 kts 95°
2026-05-03 21:40 42.36117 -70.98857 25 ft 0 kts 143°
2026-05-03 21:41 42.36103 -70.98845 28 ft 9 kts 151°
2026-05-03 21:41 42.36027 -70.98829 25 ft 10 kts 194°
2026-05-03 21:41 42.36006 -70.98877 25 ft 0 kts 255°
2026-05-03 21:42 42.36005 -70.98880 28 ft 8 kts 255°
2026-05-03 21:42 42.35927 -70.99320 26 ft 85 kts 256°
2026-05-03 21:42 42.35742 -71.00379 28 ft 144 kts 256°
2026-05-03 21:42 42.35488 -71.01805 446 ft 158 kts 258°
2026-05-03 21:43 42.34994 -71.03144 1214 ft 165 kts 238°
2026-05-03 21:43 42.34063 -71.04185 1876 ft 183 kts 217°
2026-05-03 21:43 42.32909 -71.04884 2482 ft 181 kts 219°
2026-05-03 21:43 42.31951 -71.06027 2642 ft 191 kts 235°
2026-05-03 21:44 42.31041 -71.07475 2782 ft 215 kts 237°
2026-05-03 21:44 42.30019 -71.09101 3002 ft 239 kts 235°
2026-05-03 21:44 42.28872 -71.10821 3481 ft 251 kts 233°
2026-05-03 21:44 42.27948 -71.12777 4144 ft 246 kts 259°
2026-05-03 21:45 42.27863 -71.15032 4860 ft 241 kts 284°
2026-05-03 21:45 42.28229 -71.17250 5571 ft 244 kts 284°
2026-05-03 21:45 42.28694 -71.19453 6283 ft 245 kts 296°
2026-05-03 21:45 42.29654 -71.21363 6952 ft 248 kts 314°
2026-05-03 21:46 42.31065 -71.22723 7629 ft 254 kts 333°
2026-05-03 21:46 42.32754 -71.23514 8311 ft 258 kts 339°
2026-05-03 21:46 42.34465 -71.24247 9011 ft 260 kts 340°
2026-05-03 21:46 42.36195 -71.24993 9691 ft 262 kts 339°
2026-05-03 21:47 42.37953 -71.25681 10288 ft 266 kts 346°
2026-05-03 21:47 42.39837 -71.25884 10772 ft 279 kts 354°
2026-05-03 21:47 42.41844 -71.25974 10905 ft 299 kts 354°
2026-05-03 21:47 42.43994 -71.26066 11031 ft 319 kts 355°
2026-05-03 21:48 42.46255 -71.26161 11459 ft 328 kts 355°
2026-05-03 21:48 42.48547 -71.26256 12064 ft 331 kts 354°
2026-05-03 21:48 42.50859 -71.26352 12678 ft 334 kts 354°
2026-05-03 21:48 42.53189 -71.26450 13275 ft 337 kts 354°
2026-05-03 21:49 42.55544 -71.26553 13868 ft 340 kts 354°
2026-05-03 21:49 42.57919 -71.26657 14422 ft 342 kts 354°
2026-05-03 21:49 42.60304 -71.26762 14965 ft 345 kts 354°
2026-05-03 21:49 42.62711 -71.26865 15507 ft 347 kts 354°
2026-05-03 21:50 42.65135 -71.26968 16052 ft 349 kts 354°
2026-05-03 21:50 42.67575 -71.27072 16590 ft 352 kts 354°
2026-05-03 21:50 42.70034 -71.27174 17094 ft 355 kts 354°
2026-05-03 21:50 42.71671 -71.27251 17434 ft 356 kts 352°
2026-05-03 21:51 42.74075 -71.27933 17915 ft 352 kts 335°
2026-05-03 21:51 42.76188 -71.29579 18359 ft 351 kts 319°
2026-05-03 21:51 42.77832 -71.32026 18766 ft 353 kts 303°
2026-05-03 21:51 42.78866 -71.35063 19165 ft 357 kts 287°
2026-05-03 21:52 42.79316 -71.38400 19576 ft 361 kts 281°
2026-05-03 21:52 42.79694 -71.41791 20007 ft 363 kts 281°
2026-05-03 21:52 42.79984 -71.44397 20340 ft 365 kts 281°